Location: Borovka
(49.7741°N, 14.5280°E)
Time: 09:47:01
(UTC+00:00)

LilacSat-2 - Pass Details

Date: 23 March 2026
Orbit: 412 x 424 km, 97.5° (Epoch: 20 April)

Event Time Altitude Azimuth Distance (km) Brightness Sun altitude
Rises 19:17:25 0° 214° (SW) 2,390 ? -19.1°
Reaches altitude 10° 19:20:37 10° 249° (WSW) 1,530 ? -19.6°
Maximum altitude 19:21:47 12° 270° (W) 1,443 ? -19.8°
Drops below altitude 10° 19:22:57 10° 291° (WNW) 1,534 ? -19.9°
Sets 19:26:11 0° 327° (NNW) 2,406 ? -20.4°
